Flag for Macedonia, Republic of Weather past 2 weeks in Kumanovo, Macedonia, Republic of

Now
79 °F

Sunny.


Feels Like: 78 °F
Forecast: 49 / 80 °F
Wind: 1 mph from North

Location: Skopje-Petrovec

Current Time: May 30, 2015 at 5:37:42 PM

Latest Report: May 30, 2015 at 5:00 PM


Visibility: 10 mi

Pressure: 29.95 "Hg

Humidity: 24%

Dew point: 39 °F

Location of KumanovoLocation

Historic Weather in Kumanovo — Graph

°F

Kumanovo temperature yesterday

Maximum temperature yesterday: 68 °F (at 4:00 PM)
Minimum temperature yesterday: 48 °F (at 11:30 PM)
Average temperature yesterday: 59 °F

Past Weeks' High & Low Weather Summary

 TemperatureHumidityPressure
High84 °F (May 16, 3:30 PM)100% (May 17, 4:30 AM)30.12 "Hg (May 17, 4:30 AM)
Low43 °F (May 30, 3:00 AM)23% (May 30, 4:30 PM)29.71 "Hg (May 26, 5:30 PM)
Average66 °F65%29.92 "Hg
* Reported May 15 4:00 PM — May 30 4:30 PM, Kumanovo, Weather by CustomWeather, © 2015

Note: Actual official high and low records may vary slightly from our data, if they occured in-between our weather recording intervals... More about our weather records

Advertising

Kumanovo weather history for previous 24 hours

 ConditionsComfort  
Time TempWeatherWind HumidityBarometerVisibility
4:30 PM
Sat, May 30
81 °FSunny.2 mph23%29.95 "Hg10 mi
4:00 PM79 °FSunny.2 mph24%29.95 "Hg10 mi
3:30 PM79 °FPassing clouds.5 mph26%29.95 "HgN/A
3:00 PM77 °FSunny.2 mph28%29.98 "Hg10 mi
2:30 PM77 °FSunny.2 mph28%29.98 "Hg10 mi
2:00 PM77 °FSunny.2 mph26%29.98 "Hg10 mi
1:30 PM75 °FSunny.1 mph27%29.98 "Hg10 mi
1:00 PM73 °FSunny.2 mph29%30.01 "Hg10 mi
12:30 PM73 °FSunny.2 mph27%30.01 "Hg10 mi
12:00 PM72 °FSunny.1 mph31%30.04 "Hg10 mi
11:30 AM70 °FSunny.2 mph35%30.04 "Hg10 mi
11:00 AM68 °FSunny.2 mph40%30.04 "Hg10 mi
10:30 AM66 °FSunny.2 mph46%30.04 "Hg10 mi
10:00 AM64 °FSunny.2 mph49%30.04 "Hg10 mi
9:30 AM63 °FSunny.2 mph56%30.07 "Hg10 mi
9:00 AM59 °FSunny.2 mph63%30.07 "Hg10 mi
8:30 AM57 °FSunny.1 mph63%30.07 "Hg10 mi
8:00 AM55 °FSunny.1 mph72%30.07 "Hg10 mi
7:30 AM52 °FSunny.No wind82%30.07 "Hg10 mi
7:00 AM50 °FSunny.1 mph82%30.07 "Hg10 mi
6:30 AM46 °FSunny.1 mph87%30.04 "Hg10 mi
6:00 AM43 °FClear.No wind93%30.04 "Hg10 mi
5:00 AM43 °FClear.1 mph87%30.04 "Hg10 mi
4:00 AM43 °FClear.1 mph87%30.04 "Hg10 mi
3:30 AM43 °FClear.1 mph93%30.04 "Hg10 mi
3:00 AM43 °FClear.1 mph87%30.04 "Hg10 mi
2:30 AM45 °FClear.1 mph87%30.04 "Hg10 mi
1:00 AM46 °FClear.1 mph82%30.04 "Hg10 mi
12:30 AM48 °FClear.2 mph82%30.04 "Hg10 mi
12:00 AM48 °FClear.2 mph82%30.04 "Hg10 mi
11:30 PM
Fri, May 29
48 °FClear.2 mph82%30.04 "Hg10 mi
10:30 PM54 °FClear.5 mph67%30.01 "Hg10 mi
10:00 PM54 °FClear.1 mph67%30.01 "Hg10 mi
9:30 PM57 °FClear.6 mph59%30.01 "Hg10 mi
9:00 PM57 °FClear.8 mph59%30.01 "Hg10 mi
8:30 PM59 °FSunny.6 mph59%29.98 "Hg10 mi
8:00 PM61 °FSunny.7 mph52%29.98 "Hg10 mi
7:30 PM63 °FSunny.9 mph45%29.98 "Hg10 mi
7:00 PM66 °FSunny.10 mph40%29.98 "Hg10 mi
6:30 PM66 °FPassing clouds.10 mph37%29.98 "HgN/A
6:00 PM66 °FPassing clouds.10 mph37%29.98 "HgN/A
5:30 PM68 °FPassing clouds.9 mph35%29.98 "HgN/A
5:00 PM68 °FPassing clouds.5 mph35%29.98 "HgN/A
Weather by CustomWeather, © 2015

See weather overviewHow to use our weather pages